TITAN 3C TRANSTAGE DEB, 43283

Orbit data source: Space-Track

TITAN 3C TRANSTAGE DEB, 43283 is space debris in GEO originally from a launch on Sun, 09 Feb 1969 UTC launched from the Air Force Eastern Test Range (AFETR). Debris objects in space refer to the collection of defunct objects orbiting the Earth. Examples of debris include non-operational satellites, rocket bodies, and fragments generated from explosions, collisions, or faulty payload assembly.

Loading next visibility...
Identifier
43283, 1969-013D
Orbit
GEO
Country
Flag of USUS
Related business
Manufacturer
Martin Marietta
Mission
Spacecraft
Bus & Motor
Unknown
Mass
Unknown
Launch date (UTC)
1969-02-09 (58 years ago)
Launch vehicle
Unknown
Launch site
Air Force Eastern Test Range (AFETR)
Object type
Payload
Rocket body
Debris
Shape & HBR
Unknown shape, 1.1 m
Radar Cross Section
Medium (>0.1 m² and <1 m²)

Expand to show TLE details & history
Last TLE update: 1 day ago

TLE from 1 day ago
0 TITAN 3C TRANSTAGE DEB
1 43283U 69013D   26254.51095404 -.00000159  00000-0  00000-0 0  9992
2 43283   1.6822  88.4194 0343864 146.9645 216.2477  0.93096417 28893
Epoch: 2026-09-11T12:15Z
TLE epoch observation values (Epoch: 2026-09-11T12:15:46.429Z)
Latitude
Longitude
-85.1009°
Altitude
39,163.256 km
Speed
2.917 km/s
True Right ascension
05h 57m 30s
True Declination
0° 00' 00"
Sunlit
Object was in daylight at epoch
Visualization orbit readout
Latitude
Unknown
Longitude
Unknown
Altitude
Unknown
Speed
Unknown
Apparent Right ascension
Unknown
Apparent Declination
Unknown
Sunlit
N/A
Visualization observer readout
Local Sidereal Time
11:15:52
Azimuth
Unknown
Elevation
Unknown
Doppler factor
Unknown
Orbital elements
Apogee altitude
39,450.754 km
Perigee altitude
36,403.748 km
Semi-major axis
44,305.388 km
Eccentricity
0.03439
Inclination
1.6822°
RAAN
88.4194°
Arg. of periapsis
146.9645°
True anomaly
213.99657°
Mean anomaly
216.2477°
Eccentric anomaly
215.11442°
Mean motion
0.23273 °/min
Orbital period
1,546.84 mins
BSTAR
0
Loading maneuver chart data...
Computing Atmospheric mass density...

Documentation

Showing up to 5 results
|